C/2018 R3 ( Lemmon )

Japanese version
Home page
Updated on November 19, 2018

---------------------------------------------------------------------

* Profile

Discovery Date September 7, 2018
Magnitude 19.2 mag
Discoverer B. M. Africano (Mount Lemmon Survey)

* Pictures

* Orbital Elements

Epoch 2019 June 6.0 TT = JDT 2458640.5
T 2019 June 7.23570 TT                                  MPCW
q   1.2907047            (2000.0)            P               Q
z  +0.0006703      Peri.  112.88073     -0.13210029     -0.82927050
 +/-0.0000228      Node   324.62523     +0.10174819     +0.53357309
e   0.9991348      Incl.   69.71296     +0.98600042     -0.16616318
From 88 observations 2018 Aug. 8-Oct. 10, mean residual 0".4.

* Finding Charts

* Magnitudes Graph

        m1 = 11.5 + 5 log d + 10.0 log r

---------------------------------------------------------------------

The orbital elements are published on M.P.E.C. 2018-U70.
The charts are made with StellaNavigator Ver.10 (AstroArts).
The magnitudes graphs are made with Comet for Windows.

---------------------------------------------------------------------

Copyright(C) Seiichi Yoshida (comet@aerith.net). All rights reserved.